Location: Unspecified
(20.0000°S, 0.0000°E)
Time: 03:35:26
(UTC+00:00)

NUDT-PHONESAT - Pass Details

Date: 26 July 2019
Orbit: 489 x 505 km, 97.4° (Epoch: 24 August)

Event Time Altitude Azimuth Distance (km) Brightness Sun altitude
Rises 05:52:55 0° 12° (NNE) 2,577 ? -9.6°
Reaches altitude 10° 05:54:58 10° 12° (NNE) 1,704 ? -9.1°
Maximum altitude 05:58:39 88° 99° (E) 512 ? -8.3°
Drops below altitude 10° 06:02:23 10° 190° (S) 1,732 ? -7.5°
Sets 06:04:29 0° 190° (S) 2,625 ? -7.0°
